Terminal Aerodrome Forecast
Issued by NWS

Home | Current Version | Previous Version | Text Only | Print | Product List | Glossary On
Versions: 1 2 3 4 5 6 7 8 9 10 11 12 13 14 15 16 17
000
FTUS41 KBOX 271729
TAFBED
TAF
KBED 271729Z 2718/2818 VRB03KT P6SM BKN010
     FM280000 13004KT 5SM BR OVC008
     FM280800 17004KT 5SM BR BKN003
     FM281000 18004KT 2SM BR VCSH BKN003
     FM281300 21004KT P6SM BKN008
     FM281600 24006KT P6SM SCT050=

USA.gov is the U.S. government's official web portal to all federal, state and local government web resources and services.